163  
ASUS43 KFSD 150510  
RWRFSD  
 
WEATHER ROUNDUP FOR SE SOUTH DAKOTA/SW MINNESOTA/NW IOWA  
NATIONAL WEATHER SERVICE SIOUX FALLS SD  
1200 AM CDT SUN SEP 15 2019  
 
NOTE: "FAIR" INDICATES FEW OR NO CLOUDS BELOW 12,000 FEET WITH NO  
SIGNIFICANT WEATHER AND OR S TO VISIBILITY
.  
 
 
SDZ038>040-050-052>070-150600-  
SOUTHEAST SOUTH DAKOTA  
 
CITY SKY/WX TMP DP RH WIND PRES REMARKS
 
BROOKINGS MOCLDY 64 64 100 CALM 29.96S FOG  
CHAMBERLAIN CLEAR 64 64 100 CALM 29.96S  
HURON FOG 62 60 93 CALM 29.94R VSB 1/4  
MADISON FOG 59 59 100 N6 29.96S VSB 1/4  
MITCHELL FAIR 64 62 93 NW5 29.95R  
SIOUX FALLS PTCLDY 65 64 97 NE3 29.93S FOG  
WINNER FAIR 63 54 72 S6 29.98S  
YANKTON CLEAR 67 62 84 W6 29.95R  

 
 
MNZ071-072-080-081-089-090-097-098-150600-  
SOUTHWEST MINNESOTA  
 
CITY SKY/WX TMP DP RH WIND PRES REMARKS
 
FAIRMONT MOCLDY 64 62 93 S6 29.96F  
JACKSON PTCLDY 66 63 88 S7 29.97F  
MARSHALL PTCLDY 67 65 93 S5 29.96S  
MONTEVIDEO CLEAR 64 63 94 SW5 29.94S  
PIPESTONE CLEAR 66 64 94 CALM 29.96S  
REDWOOD FALLS CLEAR 65 63 93 S6 29.95R  
TRACY PTCLDY 66 64 94 CALM 29.96S  
WORTHINGTON MOCLDY 66 65 96 SE7 29.96F  

 
 
IAZ001>003-012>014-020>022-031-032-NEZ013-014-SDZ071-150600-  
NORTHWEST IOWA  
 
CITY SKY/WX TMP DP RH WIND PRES REMARKS
 
CHEROKEE FOG 66 66 100 CALM 29.94F VSB 1/2  
DENISON PTCLDY 72 72 100 S5 29.97F  
ESTHERVILLE PTCLDY 62 61 96 CALM 29.96F  
LE MARS CLEAR 70 70 100 S5 29.93S  
MAURICE FAIR 68 68 100 S9 29.93S  
SHELDON N/A 66 66 100 SE3 29.93S  
SIOUX CITY CLEAR 69 68 96 MISG 29.93S  
SPENCER PTCLDY 67 64 90 E6 29.96F  
STORM LAKE CLEAR 70 70 100 S7 29.93S  

 
 
ABBREVIATIONS USED IN REMARKS  
TC - TEMPERATURE IN CELSIUS  
WCI - WIND CHILL INDEX  
HX - HEAT INDEX  
VSB - VISIBILITY  
 
 
 
CLICK HERE TO GO TO PREVIOUS BULLETINS.

The Nexlab SD Page
The Nexlab IA Page
The Nexlab MN Page
The Nexlab NE Page Main Text Page